Regional Weather Roundup
Issued by NWS

Home | Current Version | Previous Version | Graphics & Text | Print | Product List | Glossary On
Versions: 1 2 3 4 5 6 7 8 9 10 11 12 13 14 15 16 17 18 19 20 21 22 23 24 25 26 27 28 29 30 31 32 33 34 35 36 37 38 39 40 41 42 43 44 45 46 47 48 49 50
000
ASUS43 KBIS 241610
RWRND

NORTH DAKOTA REGIONAL WEATHER ROUNDUP
NATIONAL WEATHER SERVICE BISMARCK ND
1100 AM CDT THU APR 24 2014

NOTE: "FAIR" INDICATES FEW OR NO CLOUDS BELOW 12,000 FEET WITH NO
SIGNIFICANT WEATHER AND/OR OBSTRUCTIONS TO VISIBILITY.


NDZ001>003-009>011-017-241700-
NORTHWEST NORTH DAKOTA

CITY           SKY/WX    TMP DP  RH WIND       PRES   REMARKS
WILLISTON      SUNNY     50  33  52 W13       29.73S
MINOT          SUNNY     51  34  52 W14       29.69R
MINOT AFB      MOSUNNY   51  36  58 NW16      29.67S
$$

NDZ018>021-031>035-040>046-241700-
SOUTHWEST NORTH DAKOTA

CITY           SKY/WX    TMP DP  RH WIND       PRES   REMARKS
BISMARCK       SUNNY     56  28  34 W14G20    29.75S
DICKINSON      SUNNY     54  22  28 W20       29.74F
GARRISON         N/A     50  32  50 W16       29.71S
HETTINGER ARPT MOSUNNY   53  25  33 W18G26    29.79F
$$

NDZ004>008-012>016-024-026-027-054-241700-
NORTHEAST NORTH DAKOTA

CITY           SKY/WX    TMP DP  RH WIND       PRES   REMARKS
GRAND FORKS    LGT RAIN  43  39  87 SE12      29.76S FOG
GRND FRKS AFB  CLOUDY    42  42 100 S9        29.76R
DEVILS LAKE    CLOUDY    39  36  87 S8        29.71S
$$

NDZ022-023-025-028>030-036>039-047>053-241700-
SOUTHEAST NORTH DAKOTA

CITY           SKY/WX    TMP DP  RH WIND       PRES   REMARKS
FARGO          LGT RAIN  42  40  92 SE9       29.75F FOG
JAMESTOWN      CLOUDY    46  44  93 W3        29.70F
$$




USA.gov is the U.S. government's official web portal to all federal, state and local government web resources and services.